Retour au catalogue

STARLINK-4204

ActifCommunicationsVLEO
NORAD 52854·PAYLOAD·🇺🇸 United States

Lancé Jun 17, 2022 depuis Cape Canaveral Space Force Station

Loading…

Prochains Passages (prochaines 24 heures)

TLE

FraisSource: CelesTrak SupGP

Époque: Sep 15, 2026, 01:44 UTC

1 52854C 22062AA  26258.07270833 -.00035387  00000+0 -10123-2 0  2583
2 52854  53.1582 242.7600 0001302  89.5913 250.7136 15.35421776    18

Suivez STARLINK-4204 en temps réel avec AllMySat

Download on the App Store